Showing default

MKA-FKI 1, 38711

Orbit data source: Space-Track

MKA-FKI 1, 38711 is a Commonwealth of Independent States-origin payload satellite in SSO that was launched on Sun, 22 Jul 2012 UTC via a SOYUZ-FG launch vehicle from the Tyuratam Missile And Space Complex (TTMTR). Payload-class satellites include a variety of spacecraft equipped with specific instruments for various scientific and technological missions. These include communications satellites like Starlink; space stations such as the ISS; scientific satellites like the Hubble; Earth observation satellites from companies like Planet Labs, Umbra, and HawkEye 360; GPS; miniature CubeSats for education and research; and military/defense satellites.

Loading next visibility...
Identifier
38711, 2012-039E
Orbit
SSO
Country
Flag of CISCIS
Related business
Manufacturer
Lavochkin
Mission
Operational Civil Science
Bus & Motor
KARAT, Unknown motor
Mass
110 kg wet, 110 kg dry
Launch date (UTC)
2012-07-22 (14 years ago)
Launch vehicle
SOYUZ-FG
Launch site
Tyuratam Missile And Space Complex (TTMTR)
Object type
Payload
Rocket body
Debris
Shape & HBR
Box + 3 Pan, 0.5 m
Radar Cross Section
1.500 m², Large (>1 m²)

Expand to show TLE details & history
Last TLE update: 2 days ago

TLE from 2 days ago
0 MKA-FKI 1
1 38711U 12039E   26171.34640010  .00000112  00000-0  66985-4 0  9992
2 38711  98.9724 288.4544 0011972 154.9223 205.2539 14.25429127723298
Epoch: 2026-06-20T08:18Z
TLE epoch observation values (Epoch: 2026-06-20T08:18:48.968Z)
Latitude
-0.00007°
Longitude
-104.81196°
Altitude
817.747 km
Speed
7.44 km/s
True Right ascension
19h 13m 49s
True Declination
0° 00' 00"
Sunlit
Object was in full shadow at epoch
Visualization orbit readout
Latitude
Unknown
Longitude
Unknown
Altitude
Unknown
Speed
Unknown
Apparent Right ascension
Unknown
Apparent Declination
Unknown
Sunlit
N/A
Visualization observer readout
Local Sidereal Time
00:51:08
Azimuth
Unknown
Elevation
Unknown
Doppler factor
Unknown
Orbital elements
Apogee altitude
812.813 km
Perigee altitude
795.616 km
Semi-major axis
7,182.351 km
Eccentricity
0.0012
Inclination
98.9724°
RAAN
288.4544°
Arg. of periapsis
154.9223°
True anomaly
205.19545°
Mean anomaly
205.2539°
Eccentric anomaly
205.22467°
Mean motion
3.56569 °/min
Orbital period
100.96 mins
BSTAR
0.000066985
Loading maneuver chart data...
Computing Atmospheric mass density...
Loading historical data...
Loading historical data...
Loading historical data...
Loading historical data...
Loading historical data...
Loading historical data...
Loading historical data...

Documentation

Showing up to 5 results
|